TimeCDT,TemperatureF,Dew PointF,Humidity,Sea Level PressureIn,VisibilityMPH,Wind Direction,Wind SpeedMPH,Gust SpeedMPH,PrecipitationIn,Events,Conditions,WindDirDegrees,DateUTC
12:56 AM,48.0,45.0,89,30.23,10.0,NNW,3.5,-,N/A,,Clear,340,2013-09-13 05:56:00
1:56 AM,46.0,44.1,93,30.24,10.0,Calm,Calm,-,N/A,,Clear,0,2013-09-13 06:56:00
2:56 AM,44.1,42.1,93,30.24,6.0,Calm,Calm,-,N/A,,Clear,0,2013-09-13 07:56:00
3:36 AM,42.8,41.0,93,30.23,2.0,Calm,Calm,-,N/A,,Partly Cloudy,0,2013-09-13 08:36:00
3:39 AM,42.8,41.0,93,30.23,1.0,Calm,Calm,-,N/A,,Mist,0,2013-09-13 08:39:00
3:46 AM,41.0,41.0,100,30.23,0.5,Calm,Calm,-,N/A,Fog,Fog,0,2013-09-13 08:46:00
3:53 AM,39.2,39.2,100,30.23,1.2,Calm,Calm,-,N/A,,Partly Cloudy,0,2013-09-13 08:53:00
3:56 AM,39.9,39.9,100,30.24,4.0,Calm,Calm,-,N/A,,Partly Cloudy,0,2013-09-13 08:56:00
4:56 AM,41.0,39.9,96,30.25,5.0,Calm,Calm,-,N/A,,Clear,0,2013-09-13 09:56:00
5:02 AM,41.0,41.0,100,30.24,1.8,Calm,Calm,-,N/A,,Clear,0,2013-09-13 10:02:00
5:13 AM,39.2,39.2,100,30.24,0.5,Calm,Calm,-,N/A,Fog,Fog,0,2013-09-13 10:13:00
5:21 AM,42.8,41.0,93,30.24,1.2,Calm,Calm,-,N/A,,Partly Cloudy,0,2013-09-13 10:21:00
5:26 AM,39.2,39.2,100,30.24,3.0,Calm,Calm,-,N/A,,Partly Cloudy,0,2013-09-13 10:26:00
5:32 AM,39.2,39.2,100,30.24,1.8,Calm,Calm,-,N/A,,Partly Cloudy,0,2013-09-13 10:32:00
5:43 AM,39.2,39.2,100,30.24,0.5,Calm,Calm,-,N/A,Fog,Fog,0,2013-09-13 10:43:00
5:56 AM,39.0,39.0,100,30.25,0.8,Calm,Calm,-,N/A,,Clear,0,2013-09-13 10:56:00
6:01 AM,39.2,39.2,100,30.24,2.0,Calm,Calm,-,N/A,,Clear,0,2013-09-13 11:01:00
6:09 AM,39.2,39.2,100,30.24,5.0,Calm,Calm,-,N/A,,Clear,0,2013-09-13 11:09:00
6:15 AM,37.4,37.4,100,30.24,1.5,Calm,Calm,-,N/A,,Clear,0,2013-09-13 11:15:00
6:25 AM,39.2,39.2,100,30.25,0.5,Calm,Calm,-,N/A,Fog,Fog,0,2013-09-13 11:25:00
6:35 AM,39.2,39.2,100,30.25,0.2,Calm,Calm,-,N/A,Fog,Fog,0,2013-09-13 11:35:00
6:54 AM,39.2,39.2,100,30.26,0.5,NE,3.5,-,N/A,Fog,Fog,50,2013-09-13 11:54:00
6:56 AM,37.9,37.9,100,30.27,0.5,NE,3.5,-,N/A,Fog,Fog,50,2013-09-13 11:56:00
7:03 AM,37.4,37.4,100,30.26,0.2,NE,4.6,-,N/A,Fog,Fog,50,2013-09-13 12:03:00
7:13 AM,37.4,37.4,100,30.26,0.2,NE,3.5,-,N/A,Fog,Fog,40,2013-09-13 12:13:00
7:56 AM,44.1,44.1,100,30.28,0.2,Calm,Calm,-,N/A,Fog,Fog,0,2013-09-13 12:56:00
8:03 AM,46.4,44.6,93,30.27,1.0,Calm,Calm,-,N/A,,Mist,0,2013-09-13 13:03:00
8:08 AM,46.4,44.6,93,30.26,4.0,Calm,Calm,-,N/A,,Mostly Cloudy,0,2013-09-13 13:08:00
8:16 AM,46.4,46.4,100,30.26,10.0,Calm,Calm,-,N/A,,Scattered Clouds,0,2013-09-13 13:16:00
8:56 AM,51.1,46.0,83,30.28,10.0,ENE,4.6,-,N/A,,Clear,60,2013-09-13 13:56:00
9:56 AM,55.9,43.0,62,30.29,10.0,ENE,3.5,-,N/A,,Clear,60,2013-09-13 14:56:00
10:56 AM,59.0,41.0,51,30.28,10.0,ENE,6.9,-,N/A,,Partly Cloudy,70,2013-09-13 15:56:00
11:56 AM,61.0,41.0,48,30.27,10.0,West,4.6,-,N/A,,Clear,270,2013-09-13 16:56:00
12:56 PM,63.0,39.9,43,30.25,10.0,Variable,4.6,-,N/A,,Partly Cloudy,0,2013-09-13 17:56:00
1:56 PM,64.9,39.9,40,30.22,10.0,Calm,Calm,-,N/A,,Clear,0,2013-09-13 18:56:00
2:56 PM,66.9,39.0,36,30.20,10.0,Variable,4.6,-,N/A,,Clear,0,2013-09-13 19:56:00
3:56 PM,66.9,39.0,36,30.17,10.0,Calm,Calm,-,N/A,,Clear,0,2013-09-13 20:56:00
4:56 PM,66.9,39.0,36,30.16,10.0,Calm,Calm,-,N/A,,Clear,0,2013-09-13 21:56:00
5:56 PM,68.0,39.0,35,30.15,10.0,NNE,4.6,-,N/A,,Clear,30,2013-09-13 22:56:00
6:56 PM,64.9,39.9,40,30.14,10.0,ENE,3.5,-,N/A,,Clear,70,2013-09-13 23:56:00
7:56 PM,60.1,41.0,49,30.14,10.0,SSE,3.5,-,N/A,,Clear,150,2013-09-14 00:56:00
8:56 PM,51.1,41.0,68,30.14,10.0,Calm,Calm,-,N/A,,Clear,0,2013-09-14 01:56:00
9:56 PM,50.0,42.1,74,30.13,10.0,Calm,Calm,-,N/A,,Clear,0,2013-09-14 02:56:00
10:56 PM,48.9,45.0,86,30.13,10.0,Calm,Calm,-,N/A,,Clear,0,2013-09-14 03:56:00
11:56 PM,45.0,42.1,90,30.12,10.0,Calm,Calm,-,N/A,,Clear,0,2013-09-14 04:56:00